Location: S�deilles
(46.7500°N, 6.9329°E)
Time: 11:26:49
(UTC+00:00)

Terra - Pass Details

Date: 08 March 2021
Orbit: 701 x 703 km, 98.2° (Epoch: 23 April)

Event Time Altitude Azimuth Distance (km) Brightness Sun altitude
Exits shadow 20:00:40 11° 25° (NNE) 2,120 4.3 -26.4°
Drops below altitude 10° 20:01:00 10° 22° (NNE) 2,198 4.4 -26.4°
Sets 20:04:00 0° 1° (N) 3,106 5.4 -26.9°
